Weather in Glazov

Russia / Udmurt Republic     58°08′26″N   52°40′27″E
temp.,
°C
wind,
m/s
gust,
m/s
humid.,
%
clouds,
%
prec.,
mm/h
press.,
hPa
HPBL,
m
7 may, fri
fri701:00+7sse31185100 0.0 1014238
04:00+7s3119357 0.0 1014242
07:00+10s31282100 0.0 1013369
10:00+16ssw5105746 0.0 1013817
13:00+19ssw6104084 0.0 10132756
16:00+18ssw5104480 0.0 10132563
19:00+15ssw4105597 0.0 1013830
22:00+12s4126757 0.0 1014442
8 may, sat
sat801:00+11ssw41270100 0.1 1014581
04:00+10wsw3785100 0.1 1015494
07:00+8nnw2485100 0.3 1017332
10:00+10ne237482 0.3 1018462
13:00+13ese2161100 0.0 1018905
16:00+14se226224 0.0 1017870
19:00+13se23711 0.0 1017203
22:00+9ese22860 0.0 101732
9 may, sun
sun901:00+9ese36925 0.0 1016108
04:00+8se26945 0.0 1016107
07:00+11se397676 0.0 1016281
10:00+17sse575151 0.0 10161018
13:00+20sse573980 0.0 10152086
16:00+21s57355 0.0 10152547
19:00+18se394982 0.0 1016320
22:00+13se3968100 0.0 1017156
10 may, mon
mon1001:00+13se21068100 0.0 1017202
04:00+13se2470100 0.0 101989
07:00+13se2571100 0.0 1020136
10:00+18s3653100 0.0 1021647
13:00+21ssw3745100 0.0 10201513
16:00+14nw4883100 0.3 1023560
19:00+11n3791100 1.2 1025392
22:00+10n4788100 1.3 1026680
11 may, tue
tue1101:00+9n4780100 0.0 1028884
04:00+6n38925 0.0 1029326
07:00+7nne496992 0.0 1030476
10:00+12nne464548 0.0 1031981
13:00+16n343411 0.0 10301475
16:00+17nnw34376 0.0 10291582
19:00+15nnw2255100 0.0 102964
22:00+11nnw1169100 0.0 103010